Weather History for Lebanon, NH

Change the Weather History Date:

Wednesday, October 3, 2012

  Actual Average Record
Temperature  
Mean Temperature 62 °F -  
Max Temperature 64 °F 63 °F 84 °F (1967)
Min Temperature 59 °F 43 °F 27 °F (1942)
Degree Days  
Heating Degree Days 4    
Growing Degree Days 12 (Base 50)    
Moisture  
Dew Point 58 °F    
Average Humidity 91    
Maximum Humidity 94    
Minimum Humidity 84    
Precipitation  
Precipitation 0.36 in - - ()
Sea Level Pressure  
Sea Level Pressure 30.08 in    
Wind  
Wind Speed 1 mph (NNW)    
Max Wind Speed 5 mph    
Max Gust Speed -    
Visibility 6 miles    
Events Rain    
Averages and records for this station are not official NWS values.
T = Trace of Precipitation, MM = Missing Value Source: NWS Daily Summary

Daily Weather History Graph

Daily Weather History Graph

Search for Another Location

Airport:

Trip Planner

Search our weather history database for the weather conditions in past years. The results will help you decide how hot, cold, wet, or windy it might be!

Date:

Astronomy

Oct. 03, 2012 Rise Set
Actual Time 6:49 AM EDT 6:25 PM EDT
Civil Twilight 6:20 AM EDT 6:54 PM EDT
Nautical Twilight 5:47 AM EDT 7:27 PM EDT
Astronomical Twilight 5:14 AM EDT 8:01 PM EDT
Moon 8:08 PM EDT (10/3) 10:17 AM EDT (10/3)
Length of Visible Light 12h 33m
Length of Day
11h 36m
Waning Gibbous, 89% of the Moon is Illuminated
Oct 3
Waning Gibbous
Oct 8
Last Quarter
Oct 15
New
Oct 21
First Quarter
Oct 29
Full

Hourly Weather History & Observations

Time (EDT) Temp. Dew Point Humidity Pressure Visibility Wind Dir Wind Speed Gust Speed Precip Events Conditions
12:14 AM 59.0 °F 57.2 °F 94% 30.05 in 7.0 mi Calm Calm - N/A   Overcast
12:53 AM 59.0 °F 57.0 °F 93% 30.03 in 5.0 mi NNE 3.5 mph - N/A   Overcast
1:34 AM 59.0 °F 57.2 °F 94% 30.05 in 6.0 mi Calm Calm - N/A   Overcast
1:53 AM 59.0 °F 57.0 °F 93% 30.04 in 6.0 mi Calm Calm - N/A   Overcast
2:05 AM 59.0 °F 57.2 °F 94% 30.05 in 6.0 mi Calm Calm - N/A   Overcast
2:25 AM 59.0 °F 57.2 °F 94% 30.05 in 5.0 mi Calm Calm - N/A   Overcast
2:38 AM 59.0 °F 57.2 °F 94% 30.05 in 1.8 mi Calm Calm - N/A   Overcast
2:53 AM 60.1 °F 57.0 °F 90% 30.03 in 2.0 mi Calm Calm - N/A   Overcast
3:01 AM 60.8 °F 57.2 °F 88% 30.05 in 3.0 mi Calm Calm - N/A   Overcast
3:41 AM 59.0 °F 57.2 °F 94% 30.04 in 2.0 mi Calm Calm - N/A   Overcast
3:53 AM 59.0 °F 57.0 °F 93% 30.03 in 2.5 mi Calm Calm - N/A   Overcast
4:05 AM 59.0 °F 57.2 °F 94% 30.05 in 4.0 mi Calm Calm - N/A   Overcast
4:53 AM 60.1 °F 57.0 °F 90% 30.04 in 3.0 mi Calm Calm - N/A   Overcast
5:09 AM 59.0 °F 57.2 °F 94% 30.05 in 1.8 mi Calm Calm - N/A   Overcast
5:28 AM 59.0 °F 57.2 °F 94% 30.05 in 2.5 mi Calm Calm - N/A   Overcast
5:53 AM 59.0 °F 57.0 °F 93% 30.05 in 4.0 mi Calm Calm - N/A   Overcast
6:53 AM 59.0 °F 57.0 °F 93% 30.07 in 1.8 mi Calm Calm - 0.05 in Rain Heavy Rain
7:30 AM 59.0 °F 57.2 °F 94% 30.08 in 4.0 mi Variable 3.5 mph - 0.12 in Rain Light Rain
7:42 AM 59.0 °F 57.2 °F 94% 30.07 in 6.0 mi Calm Calm - 0.12 in   Overcast
7:53 AM 60.1 °F 57.0 °F 90% 30.06 in 7.0 mi Calm Calm - 0.12 in   Overcast
8:53 AM 59.0 °F 57.0 °F 93% 30.09 in 0.8 mi NW 4.6 mph - 0.06 in Rain Heavy Rain
9:00 AM 59.0 °F 57.2 °F 94% 30.10 in 1.0 mi Calm Calm - 0.03 in Rain Rain
9:10 AM 59.0 °F 57.2 °F 94% 30.10 in 1.8 mi Calm Calm - 0.05 in Rain Light Rain
9:29 AM 60.8 °F 57.2 °F 88% 30.11 in 1.8 mi NNW 3.5 mph - 0.06 in Rain Light Rain
9:53 AM 60.1 °F 57.9 °F 93% 30.10 in 3.0 mi North 4.6 mph - 0.09 in Rain Light Rain
10:48 AM 60.8 °F 59.0 °F 94% 30.11 in 2.5 mi Calm Calm - 0.03 in Rain Light Rain
10:53 AM 61.0 °F 59.0 °F 93% 30.09 in 4.0 mi Calm Calm - 0.03 in Rain Light Rain
11:10 AM 60.8 °F 59.0 °F 94% 30.10 in 2.5 mi Calm Calm - 0.01 in Rain Light Rain
11:22 AM 62.6 °F 59.0 °F 88% 30.10 in 2.5 mi Calm Calm - 0.01 in Rain Light Rain
11:53 AM 62.1 °F 60.1 °F 93% 30.08 in 6.0 mi Calm Calm - 0.01 in   Overcast
12:53 PM 63.0 °F 60.1 °F 90% 30.08 in 6.0 mi Calm Calm - N/A   Overcast
1:16 PM 64.4 °F 60.8 °F 88% 30.09 in 6.0 mi Calm Calm - N/A   Overcast
1:50 PM 64.4 °F 60.8 °F 88% 30.08 in 6.0 mi WSW 3.5 mph - N/A   Overcast
1:53 PM 64.0 °F 60.1 °F 87% 30.07 in 6.0 mi West 3.5 mph - N/A   Overcast
2:10 PM 64.4 °F 60.8 °F 88% 30.08 in 10.0 mi WSW 3.5 mph - N/A   Overcast
2:53 PM 64.9 °F 60.1 °F 84% 30.06 in 6.0 mi West 3.5 mph - N/A   Haze
3:23 PM 64.4 °F 60.8 °F 88% 30.09 in 6.0 mi Calm Calm - N/A   Haze
3:53 PM 64.9 °F 60.1 °F 84% 30.08 in 6.0 mi Calm Calm - N/A   Overcast
4:53 PM 64.9 °F 60.1 °F 84% 30.08 in 10.0 mi Calm Calm - N/A   Overcast
5:18 PM 64.4 °F 60.8 °F 88% 30.10 in 10.0 mi ENE 3.5 mph - N/A   Overcast
5:49 PM 64.4 °F 60.8 °F 88% 30.11 in 10.0 mi Calm Calm - N/A   Overcast
5:53 PM 64.0 °F 60.1 °F 87% 30.09 in 10.0 mi NE 3.5 mph - N/A   Overcast
6:35 PM 62.6 °F 59.0 °F 88% 30.11 in 10.0 mi Calm Calm - N/A   Overcast
6:53 PM 63.0 °F 59.0 °F 87% 30.10 in 10.0 mi NE 3.5 mph - N/A   Overcast
7:53 PM 62.1 °F 59.0 °F 90% 30.11 in 10.0 mi NE 4.6 mph - N/A   Overcast
8:53 PM 62.1 °F 59.0 °F 90% 30.12 in 10.0 mi Calm Calm - N/A   Overcast
9:53 PM 62.1 °F 59.0 °F 90% 30.13 in 10.0 mi Calm Calm - N/A   Overcast
10:53 PM 62.1 °F 59.0 °F 90% 30.14 in 10.0 mi Calm Calm - N/A   Overcast
11:53 PM 62.1 °F 59.0 °F 90% 30.14 in 9.0 mi Calm Calm - N/A   Overcast